Regional Weather Roundup
Issued by NWS

Home | Current Version | Previous Version | Text Only | Print | Product List | Glossary Off
Versions: 1 2 3 4 5 6 7 8 9 10 11 12 13 14 15 16 17 18 19 20 21 22 23 24 25 26 27 28 29 30 31 32 33 34 35 36 37 38 39 40 41 42 43 44 45 46 47 48 49 50

408
ASUS45 KCYS 291910
RWRWY

WYOMING REGIONAL WEATHER ROUNDUP
NATIONAL WEATHER SERVICE CHEYENNE WY
100 PM MDT MON AUG 29 2016

NOTE:  "FAIR" INDICATES FEW OR NO CLOUDS BELOW 12,000 FEET
WITH NO SIGNIFICANT WEATHER AND/OR OBSTRUCTIONS TO VISIBILITY.

WYZ001-292000-
YELLOWSTONE NATIONAL PARK

CITY           SKY/WX    TMP DP  RH WIND       PRES   REMARKS
LK YELLOWSTONE   N/A     72  29  20 E6        30.48F
W YELLOWSTONE  NOT AVBL

$$
WYZ002>013-054>058-071-098>099-292000-
NORTHERN WYOMING

CITY           SKY/WX    TMP DP  RH WIND       PRES   REMARKS
JACKSON        SUNNY     73  34  23 S5        30.39F
CODY           FAIR      75  48  38 CALM      30.32F
GREYBULL       FAIR      79  44  28 CALM      30.25F
WORLAND        FAIR      77  45  32 W5        30.27F
SHERIDAN       FAIR      82  47  29 VRB5      30.28F
BUFFALO        FAIR      80  43  26 VRB3      30.35F
GILLETTE       FAIR      82  48  30 E8        30.29F
HULETT         FAIR      77  50  38 E15G21    30.32F
NEWCASTLE      FAIR      82  41  23 S8        30.28F

$$
WYZ014>020-022>026-101>103-292000-
CENTRAL WYOMING

CITY           SKY/WX    TMP DP  RH WIND       PRES   REMARKS
BIG PINEY      FAIR      78  29  16 SW8       30.42F
PINEDALE       FAIR      77  25  14 S8        30.43F
DUBOIS         FAIR      75  25  15 SE12      30.43F
LANDER         FAIR      81  31  16 VRB3      30.35F
RIVERTON       FAIR      80  35  19 CALM      30.35F
CASPER         FAIR      81  41  24 CALM      30.33F
DOUGLAS        FAIR      86  39  19 SW8       30.30F

$$
WYZ021-027>030-104>119-292000-
SOUTHERN WYOMING

CITY           SKY/WX    TMP DP  RH WIND       PRES   REMARKS
EVANSTON       FAIR      79  26  14 VRB5      30.41F
FORT BRIDGER   FAIR      78  26  14 NE6       30.44F
ROCK SPRINGS   FAIR      80  24  12 E8        30.39F
DIXON          FAIR      82  30  15 SW3       30.36F
RAWLINS        FAIR      80  31  16 E10G17    30.40F
SARATOGA       FAIR      79  32  18 NW5       30.40F
LARAMIE        FAIR      77  31  18 NE10G22   30.41F
CHEYENNE       FAIR      77  41  27 E14       30.36S
TORRINGTON     FAIR      88  42  20 SE12      30.23F
PINE BLUFFS    FAIR      82  37  20 E8G16     30.31S

$$




USA.gov is the U.S. government's official web portal to all federal, state and local government web resources and services.